| time (UTC) | temp F | wind direction | speed MPH | gust MPH | rain 1hr in | rain 24hr in | rain mn in | humidity % | barometer mb |
| 20260505021719 | 65 | 324 | 6.0 | 11.0 | 0.00 | 0.05 | 0.00 | 42 | 1007.6 |
| 20260505020744 | 66 | 319 | 6.0 | 14.0 | 0.00 | 0.05 | 0.00 | 42 | 1007.5 |
| 20260505015804 | 67 | 307 | 6.0 | 15.0 | 0.00 | 0.05 | 0.00 | 42 | 1007.5 |
| 20260505014929 | 68 | 297 | 7.0 | 20.0 | 0.00 | 0.05 | 0.00 | 37 | 1007.4 |
| 20260505013957 | 69 | 306 | 10.0 | 20.0 | 0.00 | 0.05 | 0.00 | 34 | 1007.2 |
| 20260505013054 | 70 | 242 | 3.0 | 8.0 | 0.00 | 0.05 | 0.00 | 31 | 1006.8 |
| 20260505012252 | 70 | 251 | 3.0 | 8.0 | 0.00 | 0.05 | 0.00 | 32 | 1006.7 |
| 20260505011344 | 70 | 228 | 3.0 | 7.0 | 0.00 | 0.05 | 0.00 | 31 | 1006.6 |
| 20260505010509 | 71 | 140 | 2.0 | 5.0 | 0.00 | 0.05 | 0.00 | 31 | 1006.8 |
| 20260505005554 | 72 | 191 | 2.0 | 9.0 | 0.00 | 0.05 | 0.00 | 30 | 1006.9 |
| 20260505004710 | 73 | 171 | 3.0 | 8.0 | 0.00 | 0.05 | 0.00 | 30 | 1006.9 |
| 20260505003836 | 74 | 167 | 3.0 | 13.0 | 0.00 | 0.05 | 0.00 | 29 | 1006.8 |
| 20260505002949 | 74 | 183 | 1.0 | 6.0 | 0.00 | 0.05 | 0.00 | 29 | 1006.8 |
| 20260505002016 | 73 | 174 | 1.0 | 9.0 | 0.00 | 0.05 | 0.00 | 30 | 1006.9 |
| 20260505001029 | 72 | 184 | 3.0 | 10.0 | 0.00 | 0.05 | 0.00 | 31 | 1007.2 |
| 20260505000230 | 72 | 160 | 3.0 | 8.0 | 0.00 | 0.05 | 0.00 | 32 | 1007.2 |
| 20260504235324 | 70 | 173 | 2.0 | 10.0 | 0.00 | 0.05 | 0.00 | 35 | 1007.3 |
| 20260504234339 | 71 | 167 | 4.0 | 16.0 | 0.00 | 0.05 | 0.00 | 35 | 1007.4 |
| 20260504233429 | 71 | 203 | 4.0 | 16.0 | 0.00 | 0.05 | 0.00 | 35 | 1007.6 |
| 20260504232529 | 73 | 154 | 7.0 | 17.0 | 0.00 | 0.05 | 0.00 | 33 | 1007.5 |
| 20260504231539 | 73 | 188 | 3.0 | 8.0 | 0.00 | 0.05 | 0.00 | 31 | 1007.7 |
| 20260504230549 | 73 | 185 | 2.0 | 7.0 | 0.00 | 0.05 | 0.00 | 32 | 1007.6 |
| 20260504225659 | 72 | 186 | 2.0 | 8.0 | 0.00 | 0.05 | 0.00 | 34 | 1007.4 |
| 20260504224846 | 72 | 177 | 2.0 | 8.0 | 0.00 | 0.05 | 0.00 | 35 | 1007.6 |
| 20260504224019 | 72 | 154 | 3.0 | 9.0 | 0.00 | 0.05 | 0.00 | 34 | 1007.5 |
| 20260504223044 | 71 | 181 | 3.0 | 10.0 | 0.00 | 0.05 | 0.00 | 34 | 1007.6 |
| 20260504222129 | 72 | 156 | 2.0 | 8.0 | 0.00 | 0.05 | 0.00 | 34 | 1007.8 |
| 20260504221229 | 72 | 191 | 2.0 | 9.0 | 0.00 | 0.05 | 0.00 | 34 | 1007.6 |
| 20260504220352 | 72 | 204 | 4.0 | 10.0 | 0.00 | 0.05 | 0.00 | 34 | 1007.9 |
| 20260504215402 | 72 | 151 | 3.0 | 11.0 | 0.00 | 0.05 | 0.00 | 33 | 1007.9 |
| 20260504214559 | 72 | 182 | 3.0 | 11.0 | 0.00 | 0.05 | 0.00 | 33 | 1008.1 |
| 20260504213619 | 73 | 149 | 2.0 | 10.0 | 0.00 | 0.05 | 0.00 | 36 | 1008.3 |
| 20260504212732 | 73 | 235 | 2.0 | 7.0 | 0.00 | 0.05 | 0.00 | 32 | 1008.4 |
| 20260504211744 | 73 | 260 | 2.0 | 6.0 | 0.00 | 0.05 | 0.00 | 31 | 1008.6 |
| 20260504211016 | 73 | 176 | 2.0 | 7.0 | 0.00 | 0.05 | 0.00 | 31 | 1008.4 |
| 20260504210943 | 73 | 176 | 2.0 | 7.0 | 0.00 | 0.05 | 0.00 | 31 | 1008.4 |
| 20260504210019 | 74 | 151 | 3.0 | 8.0 | 0.00 | 0.05 | 0.00 | 32 | 1008.3 |
| 20260504205049 | 74 | 179 | 2.0 | 6.0 | 0.00 | 0.05 | 0.00 | 32 | 1008.5 |
| 20260504204133 | 73 | 141 | 1.0 | 5.0 | 0.00 | 0.05 | 0.00 | 31 | 1008.5 |
| 20260504203319 | 73 | 222 | 1.0 | 9.0 | 0.00 | 0.05 | 0.00 | 30 | 1008.8 |
| 20260504202409 | 72 | 271 | 3.0 | 10.0 | 0.00 | 0.05 | 0.00 | 33 | 1008.8 |
| 20260504201519 | 72 | 329 | 2.0 | 10.0 | 0.00 | 0.05 | 0.00 | 34 | 1008.9 |
| 20260504200559 | 71 | 253 | 3.0 | 8.0 | 0.00 | 0.05 | 0.00 | 35 | 1009.0 |
| 20260504195739 | 70 | 288 | 1.0 | 7.0 | 0.00 | 0.05 | 0.00 | 34 | 1009.4 |
| 20260504194854 | 70 | 240 | 4.0 | 13.0 | 0.00 | 0.05 | 0.00 | 37 | 1009.6 |
| 20260504193959 | 70 | 303 | 5.0 | 13.0 | 0.00 | 0.05 | 0.00 | 36 | 1009.5 |
| 20260504193149 | 70 | 323 | 4.0 | 10.0 | 0.00 | 0.05 | 0.00 | 36 | 1009.6 |
| 20260504192348 | 70 | 278 | 5.0 | 13.0 | 0.00 | 0.05 | 0.00 | 38 | 1009.8 |
| 20260504191526 | 70 | 348 | 1.0 | 5.0 | 0.00 | 0.05 | 0.00 | 40 | 1009.8 |
| 20260504190714 | 68 | 357 | 2.0 | 6.0 | 0.00 | 0.05 | 0.00 | 39 | 1010.1 |
| 20260504185734 | 67 | 342 | 2.0 | 6.0 | 0.00 | 0.05 | 0.00 | 43 | 1010.1 |
| 20260504184844 | 67 | 55 | 2.0 | 8.0 | 0.00 | 0.05 | 0.00 | 41 | 1010.4 |
| 20260504183959 | 67 | 317 | 5.0 | 8.0 | 0.00 | 0.05 | 0.00 | 42 | 1010.6 |
| 20260504183109 | 66 | 45 | 3.0 | 8.0 | 0.00 | 0.05 | 0.00 | 46 | 1011.0 |
| 20260504182229 | 64 | 312 | 5.0 | 8.0 | 0.00 | 0.05 | 0.00 | 49 | 1011.0 |
| 20260504181319 | 63 | 337 | 1.0 | 3.0 | 0.03 | 0.05 | 0.00 | 51 | 1011.1 |
| 20260504180424 | 62 | 334 | 1.0 | 3.0 | 0.04 | 0.05 | 0.00 | 60 | 1011.3 |
| 20260504175552 | 61 | 354 | 1.0 | 3.0 | 0.04 | 0.05 | 0.00 | 64 | 1011.6 |
| 20260504174612 | 60 | 20 | 1.0 | 3.0 | 0.04 | 0.05 | 0.00 | 69 | 1011.5 |
| 20260504173712 | 61 | 2 | 1.0 | 0.0 | 0.04 | 0.05 | 0.00 | 69 | 1011.7 |
| 20260504172859 | 62 | 341 | 1.0 | 10.0 | 0.04 | 0.05 | 0.00 | 66 | 1011.6 |
| 20260504171919 | 64 | 315 | 3.0 | 7.0 | 0.03 | 0.04 | 0.00 | 59 | 1012.1 |
| 20260504171119 | 65 | 14 | 2.0 | 7.0 | 0.01 | 0.02 | 0.00 | 52 | 1011.6 |
| 20260504170159 | 65 | 45 | 3.0 | 10.0 | 0.00 | 0.01 | 0.00 | 44 | 1011.5 |
| 20260504150509 | 61 | 146 | 4.0 | 16.0 | 0.00 | 0.00 | 0.00 | 49 | 1012.9 |
| 20260504140959 | 59 | 162 | 7.0 | 17.0 | 0.00 | 0.00 | 0.00 | 52 | 1012.9 |
| 20260504130349 | 55 | 93 | 5.0 | 13.0 | 0.00 | 0.00 | 0.00 | 58 | 1012.4 |
| 20260504120214 | 55 | 126 | 2.0 | 6.0 | 0.00 | 0.00 | 0.00 | 59 | 1012.4 |
| 20260504081319 | 65 | 113 | 3.0 | 10.0 | 0.00 | 0.00 | 0.00 | 35 | 1011.3 |
| 20260504080444 | 65 | 121 | 4.0 | 10.0 | 0.00 | 0.00 | 0.00 | 35 | 1011.2 |
| 20260504070202 | 65 | 144 | 3.0 | 13.0 | 0.00 | 0.00 | 0.00 | 32 | 1011.0 |
| 20260504060134 | 58 | 117 | 5.0 | 17.0 | 0.00 | 0.00 | 0.00 | 29 | 1010.6 |
| 20260504050708 | 58 | 73 | 0.0 | 0.0 | 0.00 | 0.00 | 0.00 | 34 | 1010.6 |
| 20260504045749 | 58 | 75 | 0.0 | 2.0 | 0.00 | 0.00 | 0.00 | 33 | 1010.5 |
| 20260504044814 | 59 | 96 | 1.0 | 2.0 | 0.00 | 0.00 | 0.00 | 31 | 1010.7 |
| 20260504043829 | 59 | 69 | 1.0 | 1.0 | 0.00 | 0.00 | 0.00 | 31 | 1010.7 |
| 20260504043024 | 59 | 64 | 0.0 | 2.0 | 0.00 | 0.00 | 0.00 | 31 | 1010.8 |
| 20260504042212 | 59 | 100 | 1.0 | 3.0 | 0.00 | 0.00 | 0.00 | 31 | 1010.8 |
| 20260504041304 | 59 | 99 | 4.0 | 6.0 | 0.00 | 0.00 | 0.00 | 31 | 1010.7 |
| 20260504040452 | 60 | 90 | 2.0 | 3.0 | 0.00 | 0.00 | 0.00 | 34 | 1010.9 |
| 20260504035654 | 60 | 49 | 0.0 | 1.0 | 0.00 | 0.00 | 0.00 | 34 | 1010.6 |
| 20260504034704 | 61 | 105 | 1.0 | 1.0 | 0.00 | 0.00 | 0.00 | 34 | 1010.6 |
| 20260504033859 | 61 | 9 | 0.0 | 0.0 | 0.00 | 0.00 | 0.00 | 32 | 1010.6 |
| 20260504033039 | 62 | 9 | 0.0 | 1.0 | 0.00 | 0.00 | 0.00 | 31 | 1010.5 |
| 20260504032239 | 62 | 81 | 0.0 | 0.0 | 0.00 | 0.00 | 0.00 | 29 | 1010.5 |
| 20260504031254 | 63 | 81 | 0.0 | 2.0 | 0.00 | 0.00 | 0.00 | 29 | 1010.6 |
| 20260504030347 | 64 | 100 | 0.0 | 1.0 | 0.00 | 0.00 | 0.00 | 27 | 1010.4 |
| 20260504025539 | 65 | 140 | 0.0 | 0.0 | 0.00 | 0.00 | 0.00 | 26 | 1010.2 |
| 20260504024703 | 67 | 140 | 0.0 | 0.0 | 0.00 | 0.00 | 0.00 | 24 | 1010.2 |
| 20260504023719 | 68 | 140 | 0.0 | 0.0 | 0.00 | 0.00 | 0.00 | 24 | 1010.0 |
| 20260504022839 | 70 | 140 | 0.0 | 0.0 | 0.00 | 0.00 | 0.00 | 22 | 1010.1 |